This is the latest recevied weather packets stored in our database for station/object N3WGC-14. If no packets are shown the sender has not sent any weather packets the latest 10 day(s).
| Time | Temp. | Humidity | Pressure | Rain* | Wind** | Luminosity | Snow |
|---|---|---|---|---|---|---|---|
| 1787577440 | 22.78° C | 75% | 1015.3 hPa | 0 mm | - | - | - |
| 1787577140 | 22.22° C | 73% | 1015.3 hPa | 0 mm | - | - | - |
| 1787576840 | 22.22° C | 74% | 1015.4 hPa | 0 mm | - | - | - |
| 1787576540 | 22.22° C | 74% | 1015.4 hPa | 0 mm | - | - | - |
| 1787576239 | 22.22° C | 76% | 1015.4 hPa | 0 mm | - | - | - |
| 1787575939 | 22.22° C | 76% | 1015.4 hPa | 0 mm | - | - | - |
| 1787575639 | 22.78° C | 75% | 1015.3 hPa | 0 mm | - | - | - |
| 1787575339 | 22.78° C | 78% | 1015.2 hPa | 0 mm | - | - | - |
| 1787575039 | 22.22° C | 78% | 1015.2 hPa | 0 mm | - | - | - |
| 1787574739 | 22.22° C | 78% | 1015.2 hPa | 0 mm | - | - | - |
| 1787574439 | 22.22° C | 77% | 1015.3 hPa | 0 mm | - | - | - |
| 1787574138 | 22.22° C | 83% | 1015.3 hPa | 0 mm | - | - | - |
| 1787573838 | 21.67° C | 81% | 1015.2 hPa | 0 mm | - | - | - |
| 1787573538 | 21.67° C | 84% | 1015.1 hPa | 0 mm | - | - | - |
| 1787573238 | 21.67° C | 86% | 1015 hPa | 0 mm | - | - | - |
| 1787572938 | 21.67° C | 88% | 1015 hPa | 0 mm | - | - | - |
| 1787572638 | 21.11° C | 90% | 1014.9 hPa | 0 mm | - | - | - |
| 1787572337 | 21.11° C | 92% | 1015 hPa | 0 mm | - | - | - |
| 1787572037 | 20° C | 94% | 1014.9 hPa | 0 mm | - | - | - |
| 1787571737 | 19.44° C | 97% | 1014.8 hPa | 0 mm | - | - | - |
| 1787571437 | 18.89° C | 99% | 1014.7 hPa | 0 mm | - | - | - |
| 1787571137 | 18.33° C | 99% | 1014.6 hPa | 0 mm | - | - | - |
| 1787570837 | 17.78° C | 99% | 1014.7 hPa | 0 mm | - | - | - |
| 1787570537 | 17.78° C | 99% | 1014.6 hPa | 0 mm | - | - | - |
| 1787570236 | 17.22° C | 99% | 1014.4 hPa | 0 mm | - | - | - |
* Rain latest hour (hover to see other rain measurements)
** Current wind speed in m/s (hover to see current wind gust speed)